| time (UTC) | temp F | wind direction | speed MPH | gust MPH | rain 1hr in | rain 24hr in | rain mn in | humidity % | barometer mb |
| 20260510202043 | 51 | 5 | 4.0 | 14.0 | 0.00 | 0.00 | 0.00 | 75 | 1011.9 |
| 20260510201552 | 51 | 43 | 7.0 | 14.0 | 0.00 | 0.00 | 0.00 | 76 | 1011.8 |
| 20260510201038 | 51 | 17 | 5.0 | 11.0 | 0.00 | 0.00 | 0.00 | 76 | 1011.8 |
| 20260510200548 | 51 | 10 | 5.0 | 11.0 | 0.00 | 0.00 | 0.00 | 76 | 1011.9 |
| 20260510200051 | 51 | 360 | 3.0 | 13.0 | 0.00 | 0.00 | 0.00 | 76 | 1011.9 |
| 20260510195613 | 52 | 326 | 5.0 | 15.0 | 0.00 | 0.00 | 0.00 | 76 | 1012.0 |
| 20260510195057 | 52 | 10 | 7.0 | 15.0 | 0.00 | 0.00 | 0.00 | 77 | 1011.9 |
| 20260510194546 | 52 | 15 | 3.0 | 15.0 | 0.00 | 0.00 | 0.00 | 76 | 1011.9 |
| 20260510194052 | 52 | 9 | 6.0 | 15.0 | 0.00 | 0.00 | 0.00 | 76 | 1011.8 |
| 20260510193556 | 52 | 10 | 7.0 | 14.0 | 0.00 | 0.00 | 0.00 | 75 | 1011.9 |
| 20260510193042 | 52 | 346 | 7.0 | 14.0 | 0.00 | 0.00 | 0.00 | 75 | 1011.8 |
| 20260510192552 | 52 | 348 | 6.0 | 14.0 | 0.00 | 0.00 | 0.00 | 75 | 1011.9 |
| 20260510192057 | 52 | 321 | 6.0 | 13.0 | 0.00 | 0.00 | 0.00 | 76 | 1011.9 |
| 20260510191542 | 52 | 22 | 6.0 | 13.0 | 0.00 | 0.00 | 0.00 | 76 | 1012.0 |
| 20260510191106 | 52 | 10 | 7.0 | 13.0 | 0.00 | 0.00 | 0.00 | 78 | 1011.9 |
| 20260510190552 | 52 | 48 | 4.0 | 15.0 | 0.00 | 0.00 | 0.00 | 79 | 1012.0 |
| 20260510190118 | 52 | 346 | 6.0 | 18.0 | 0.00 | 0.00 | 0.00 | 78 | 1012.1 |
| 20260510185542 | 52 | 5 | 10.0 | 19.0 | 0.00 | 0.00 | 0.00 | 78 | 1012.1 |
| 20260510185046 | 52 | 13 | 8.0 | 18.0 | 0.00 | 0.00 | 0.00 | 78 | 1012.0 |
| 20260510184617 | 52 | 5 | 9.0 | 18.0 | 0.00 | 0.00 | 0.00 | 78 | 1012.0 |
| 20260510184042 | 52 | 339 | 10.0 | 17.0 | 0.00 | 0.00 | 0.00 | 78 | 1012.1 |
| 20260510183551 | 53 | 344 | 8.0 | 17.0 | 0.00 | 0.00 | 0.00 | 77 | 1012.0 |
| 20260510183053 | 53 | 24 | 8.0 | 17.0 | 0.00 | 0.00 | 0.00 | 77 | 1012.2 |
| 20260510182542 | 53 | 346 | 10.0 | 19.0 | 0.00 | 0.00 | 0.00 | 77 | 1012.1 |
| 20260510182051 | 53 | 20 | 7.0 | 19.0 | 0.00 | 0.00 | 0.00 | 77 | 1012.2 |
| 20260510181556 | 53 | 5 | 8.0 | 21.0 | 0.00 | 0.00 | 0.00 | 78 | 1012.2 |
| 20260510181041 | 53 | 18 | 12.0 | 21.0 | 0.00 | 0.00 | 0.00 | 77 | 1012.1 |
| 20260510180546 | 53 | 346 | 12.0 | 18.0 | 0.00 | 0.00 | 0.00 | 77 | 1012.3 |
| 20260510180048 | 53 | 16 | 10.0 | 21.0 | 0.00 | 0.00 | 0.00 | 77 | 1012.3 |
| 20260510175555 | 54 | 348 | 13.0 | 21.0 | 0.00 | 0.00 | 0.00 | 76 | 1012.3 |
| 20260510175043 | 54 | 5 | 8.0 | 21.0 | 0.00 | 0.00 | 0.00 | 75 | 1012.3 |
| 20260510174551 | 54 | 314 | 9.0 | 21.0 | 0.00 | 0.00 | 0.00 | 75 | 1012.3 |
| 20260510174051 | 54 | 288 | 10.0 | 21.0 | 0.00 | 0.00 | 0.00 | 75 | 1012.2 |
| 20260510173537 | 55 | 17 | 11.0 | 21.0 | 0.00 | 0.00 | 0.00 | 75 | 1012.3 |
| 20260510173047 | 55 | 338 | 9.0 | 21.0 | 0.00 | 0.00 | 0.00 | 75 | 1012.3 |
| 20260510172556 | 55 | 5 | 9.0 | 24.0 | 0.00 | 0.00 | 0.00 | 75 | 1012.4 |
| 20260510172041 | 55 | 5 | 12.0 | 24.0 | 0.00 | 0.00 | 0.00 | 74 | 1012.3 |
| 20260510171605 | 55 | 333 | 11.0 | 24.0 | 0.00 | 0.00 | 0.00 | 74 | 1012.3 |
| 20260510171052 | 55 | 355 | 12.0 | 24.0 | 0.00 | 0.00 | 0.00 | 75 | 1012.3 |
| 20260510170540 | 55 | 5 | 11.0 | 19.0 | 0.00 | 0.00 | 0.00 | 74 | 1012.3 |
| 20260510170042 | 55 | 329 | 11.0 | 23.0 | 0.00 | 0.00 | 0.00 | 75 | 1012.3 |
| 20260510165546 | 55 | 355 | 15.0 | 23.0 | 0.00 | 0.00 | 0.00 | 74 | 1012.2 |
| 20260510165051 | 55 | 15 | 12.0 | 24.0 | 0.00 | 0.00 | 0.00 | 74 | 1012.4 |
| 20260510164556 | 56 | 16 | 12.0 | 24.0 | 0.00 | 0.00 | 0.00 | 73 | 1012.4 |
| 20260510164042 | 55 | 12 | 13.0 | 24.0 | 0.00 | 0.00 | 0.00 | 73 | 1012.5 |
| 20260510163551 | 55 | 22 | 12.0 | 22.0 | 0.00 | 0.00 | 0.00 | 73 | 1012.5 |
| 20260510163051 | 55 | 13 | 14.0 | 22.0 | 0.00 | 0.00 | 0.00 | 73 | 1012.6 |
| 20260510162542 | 56 | 311 | 12.0 | 21.0 | 0.00 | 0.00 | 0.00 | 73 | 1012.7 |
| 20260510162050 | 56 | 11 | 13.0 | 21.0 | 0.00 | 0.00 | 0.00 | 73 | 1012.7 |
| 20260510161538 | 56 | 13 | 13.0 | 23.0 | 0.00 | 0.00 | 0.00 | 72 | 1012.7 |
| 20260510161046 | 56 | 19 | 14.0 | 23.0 | 0.00 | 0.00 | 0.00 | 73 | 1012.9 |
| 20260510160550 | 56 | 14 | 9.0 | 22.0 | 0.00 | 0.00 | 0.00 | 73 | 1012.9 |
| 20260510160051 | 56 | 5 | 14.0 | 23.0 | 0.00 | 0.00 | 0.00 | 73 | 1013.0 |
| 20260510155555 | 56 | 5 | 14.0 | 23.0 | 0.00 | 0.00 | 0.00 | 73 | 1013.1 |
| 20260510155043 | 57 | 345 | 11.0 | 24.0 | 0.00 | 0.00 | 0.00 | 73 | 1013.1 |
| 20260510154549 | 57 | 5 | 14.0 | 24.0 | 0.00 | 0.00 | 0.00 | 71 | 1013.1 |
| 20260510154052 | 57 | 27 | 8.0 | 24.0 | 0.00 | 0.00 | 0.00 | 73 | 1013.1 |
| 20260510153541 | 57 | 15 | 12.0 | 24.0 | 0.00 | 0.00 | 0.00 | 73 | 1013.1 |
| 20260510153109 | 57 | 349 | 12.0 | 27.0 | 0.00 | 0.00 | 0.00 | 73 | 1013.1 |
| 20260510152555 | 57 | 5 | 14.0 | 27.0 | 0.00 | 0.00 | 0.00 | 73 | 1013.1 |
| 20260510152056 | 57 | 19 | 13.0 | 24.0 | 0.00 | 0.00 | 0.00 | 73 | 1013.0 |
| 20260510151544 | 57 | 24 | 11.0 | 23.0 | 0.00 | 0.00 | 0.00 | 73 | 1013.1 |
| 20260510151051 | 57 | 346 | 12.0 | 32.0 | 0.00 | 0.00 | 0.00 | 73 | 1013.2 |
| 20260510150558 | 57 | 5 | 12.0 | 32.0 | 0.00 | 0.00 | 0.00 | 73 | 1012.9 |
| 20260510150053 | 57 | 360 | 14.0 | 25.0 | 0.00 | 0.00 | 0.00 | 73 | 1013.2 |
| 20260510145542 | 58 | 355 | 14.0 | 21.0 | 0.00 | 0.00 | 0.00 | 72 | 1013.2 |
| 20260510145049 | 58 | 360 | 12.0 | 25.0 | 0.00 | 0.00 | 0.00 | 72 | 1013.4 |
| 20260510144556 | 58 | 27 | 16.0 | 25.0 | 0.00 | 0.00 | 0.00 | 72 | 1013.4 |
| 20260510144104 | 58 | 338 | 14.0 | 25.0 | 0.00 | 0.00 | 0.00 | 70 | 1013.4 |
| 20260510143547 | 59 | 327 | 9.0 | 20.0 | 0.00 | 0.00 | 0.00 | 70 | 1013.7 |
| 20260510143054 | 59 | 344 | 10.0 | 18.0 | 0.00 | 0.00 | 0.00 | 72 | 1013.5 |
| 20260510142543 | 59 | 17 | 11.0 | 19.0 | 0.00 | 0.00 | 0.00 | 70 | 1013.5 |
| 20260510142049 | 59 | 22 | 8.0 | 19.0 | 0.00 | 0.00 | 0.00 | 70 | 1013.5 |
| 20260510141555 | 59 | 355 | 10.0 | 24.0 | 0.00 | 0.00 | 0.00 | 71 | 1013.5 |
| 20260510141059 | 59 | 311 | 13.0 | 24.0 | 0.00 | 0.00 | 0.00 | 69 | 1013.6 |
| 20260510140607 | 60 | 5 | 7.0 | 26.0 | 0.00 | 0.00 | 0.00 | 71 | 1013.7 |
| 20260510140047 | 59 | 340 | 13.0 | 26.0 | 0.00 | 0.00 | 0.00 | 70 | 1013.7 |
| 20260510135548 | 59 | 355 | 11.0 | 23.0 | 0.00 | 0.00 | 0.00 | 72 | 1013.9 |
| 20260510134556 | 59 | 347 | 10.0 | 20.0 | 0.00 | 0.00 | 0.00 | 71 | 1014.0 |
| 20260510134056 | 60 | 46 | 11.0 | 20.0 | 0.00 | 0.00 | 0.00 | 71 | 1014.0 |
| 20260510133543 | 59 | 347 | 9.0 | 23.0 | 0.00 | 0.00 | 0.00 | 72 | 1014.1 |
| 20260510133048 | 59 | 340 | 8.0 | 23.0 | 0.00 | 0.00 | 0.00 | 74 | 1014.1 |
| 20260510132555 | 59 | 5 | 13.0 | 23.0 | 0.00 | 0.00 | 0.00 | 72 | 1014.3 |
| 20260510132043 | 59 | 355 | 13.0 | 21.0 | 0.00 | 0.00 | 0.00 | 72 | 1014.2 |
| 20260510131549 | 59 | 322 | 11.0 | 21.0 | 0.00 | 0.00 | 0.00 | 72 | 1014.3 |
| 20260510131056 | 59 | 24 | 10.0 | 20.0 | 0.00 | 0.00 | 0.00 | 73 | 1014.3 |
| 20260510130540 | 59 | 9 | 11.0 | 22.0 | 0.00 | 0.00 | 0.00 | 73 | 1014.5 |
| 20260510125549 | 59 | 360 | 13.0 | 21.0 | 0.00 | 0.00 | 0.00 | 72 | 1014.5 |
| 20260510125037 | 59 | 342 | 11.0 | 19.0 | 0.00 | 0.00 | 0.00 | 72 | 1014.5 |
| 20260510124547 | 59 | 18 | 10.0 | 22.0 | 0.00 | 0.00 | 0.00 | 74 | 1014.6 |
| 20260510124050 | 59 | 329 | 12.0 | 22.0 | 0.00 | 0.00 | 0.00 | 73 | 1014.7 |
| 20260510123557 | 60 | 26 | 12.0 | 21.0 | 0.00 | 0.00 | 0.00 | 72 | 1014.7 |
| 20260510123043 | 60 | 355 | 9.0 | 22.0 | 0.00 | 0.00 | 0.00 | 72 | 1014.7 |
| 20260510122616 | 59 | 328 | 8.0 | 22.0 | 0.00 | 0.00 | 0.00 | 76 | 1014.8 |
| 20260510122038 | 59 | 360 | 12.0 | 23.0 | 0.00 | 0.00 | 0.00 | 73 | 1014.8 |
| 20260510121546 | 59 | 350 | 12.0 | 23.0 | 0.00 | 0.00 | 0.00 | 73 | 1014.9 |
| 20260510121051 | 59 | 54 | 11.0 | 18.0 | 0.00 | 0.00 | 0.00 | 73 | 1014.9 |
| 20260510120538 | 60 | 342 | 9.0 | 24.0 | 0.00 | 0.00 | 0.00 | 73 | 1015.0 |
| 20260510120039 | 59 | 350 | 10.0 | 25.0 | 0.00 | 0.00 | 0.00 | 73 | 1015.0 |
| 20260510115603 | 60 | 11 | 11.0 | 17.0 | 0.00 | 0.00 | 0.00 | 72 | 1015.0 |
| 20260510115049 | 61 | 335 | 6.0 | 15.0 | 0.00 | 0.00 | 0.00 | 71 | 1015.0 |
| 20260510114555 | 60 | 38 | 8.0 | 15.0 | 0.00 | 0.00 | 0.00 | 70 | 1015.0 |
| 20260510114039 | 60 | 16 | 7.0 | 17.0 | 0.00 | 0.00 | 0.00 | 72 | 1015.1 |
| 20260510113543 | 59 | 348 | 10.0 | 18.0 | 0.00 | 0.00 | 0.00 | 72 | 1015.1 |
| 20260510113115 | 60 | 350 | 10.0 | 16.0 | 0.00 | 0.00 | 0.00 | 71 | 1015.2 |
| 20260510112542 | 59 | 355 | 6.0 | 17.0 | 0.00 | 0.00 | 0.00 | 73 | 1015.3 |
| 20260510112049 | 59 | 42 | 8.0 | 17.0 | 0.00 | 0.00 | 0.00 | 72 | 1015.4 |
| 20260510111537 | 59 | 355 | 7.0 | 15.0 | 0.00 | 0.00 | 0.00 | 73 | 1015.4 |
| 20260510111041 | 59 | 343 | 8.0 | 15.0 | 0.00 | 0.00 | 0.00 | 73 | 1015.4 |
| 20260510110549 | 59 | 16 | 5.0 | 15.0 | 0.00 | 0.00 | 0.00 | 73 | 1015.5 |
| 20260510110049 | 58 | 49 | 9.0 | 15.0 | 0.00 | 0.00 | 0.00 | 74 | 1015.6 |
| 20260510105555 | 58 | 355 | 8.0 | 19.0 | 0.00 | 0.00 | 0.00 | 75 | 1015.5 |
| 20260510105042 | 57 | 346 | 11.0 | 19.0 | 0.00 | 0.00 | 0.00 | 74 | 1015.6 |
| 20260510104606 | 58 | 28 | 9.0 | 16.0 | 0.00 | 0.00 | 0.00 | 74 | 1015.7 |
| 20260510104052 | 57 | 9 | 6.0 | 17.0 | 0.00 | 0.00 | 0.00 | 75 | 1015.8 |
| 20260510103540 | 58 | 337 | 7.0 | 17.0 | 0.00 | 0.00 | 0.00 | 73 | 1015.7 |
| 20260510103047 | 58 | 9 | 8.0 | 15.0 | 0.00 | 0.00 | 0.00 | 73 | 1015.8 |
| 20260510102536 | 58 | 16 | 4.0 | 18.0 | 0.00 | 0.00 | 0.00 | 74 | 1015.9 |
| 20260510102045 | 59 | 284 | 5.0 | 18.0 | 0.00 | 0.00 | 0.00 | 73 | 1015.9 |
| 20260510101617 | 58 | 355 | 7.0 | 17.0 | 0.00 | 0.00 | 0.00 | 75 | 1016.0 |
| 20260510101042 | 57 | 18 | 7.0 | 18.0 | 0.00 | 0.00 | 0.00 | 75 | 1016.1 |
| 20260510100549 | 57 | 340 | 11.0 | 18.0 | 0.00 | 0.00 | 0.00 | 73 | 1016.2 |
| 20260510100047 | 58 | 335 | 7.0 | 15.0 | 0.00 | 0.00 | 0.00 | 74 | 1016.2 |
| 20260510095553 | 57 | 320 | 7.0 | 16.0 | 0.00 | 0.00 | 0.00 | 74 | 1016.2 |
| 20260510095040 | 57 | 360 | 10.0 | 20.0 | 0.00 | 0.00 | 0.00 | 74 | 1016.2 |
| 20260510094613 | 57 | 321 | 9.0 | 20.0 | 0.00 | 0.00 | 0.00 | 74 | 1016.2 |
| 20260510094115 | 58 | 338 | 11.0 | 18.0 | 0.00 | 0.00 | 0.00 | 73 | 1016.3 |
| 20260510093543 | 57 | 14 | 8.0 | 18.0 | 0.00 | 0.00 | 0.00 | 75 | 1016.3 |
| 20260510093049 | 58 | 24 | 9.0 | 16.0 | 0.00 | 0.00 | 0.00 | 74 | 1016.3 |
| 20260510092555 | 58 | 345 | 6.0 | 16.0 | 0.00 | 0.00 | 0.00 | 76 | 1016.3 |
| 20260510092058 | 58 | 36 | 10.0 | 16.0 | 0.00 | 0.00 | 0.00 | 75 | 1016.4 |
| 20260510091604 | 58 | 355 | 5.0 | 15.0 | 0.00 | 0.00 | 0.00 | 77 | 1016.4 |
| 20260510091109 | 57 | 360 | 8.0 | 16.0 | 0.00 | 0.00 | 0.00 | 77 | 1016.4 |
| 20260510090555 | 57 | 19 | 9.0 | 17.0 | 0.00 | 0.00 | 0.00 | 78 | 1016.4 |
| 20260510090111 | 56 | 335 | 9.0 | 17.0 | 0.00 | 0.00 | 0.00 | 79 | 1016.3 |
| 20260510085555 | 56 | 340 | 10.0 | 16.0 | 0.00 | 0.00 | 0.00 | 78 | 1016.4 |
| 20260510085041 | 57 | 333 | 9.0 | 15.0 | 0.00 | 0.00 | 0.00 | 76 | 1016.4 |
| 20260510084550 | 57 | 46 | 7.0 | 15.0 | 0.00 | 0.00 | 0.00 | 78 | 1016.5 |
| 20260510084036 | 58 | 346 | 6.0 | 14.0 | 0.00 | 0.00 | 0.00 | 76 | 1016.5 |
| 20260510083540 | 57 | 338 | 5.0 | 14.0 | 0.00 | 0.00 | 0.00 | 77 | 1016.5 |
| 20260510083049 | 57 | 11 | 6.0 | 14.0 | 0.00 | 0.00 | 0.00 | 77 | 1016.5 |
| 20260510082555 | 57 | 19 | 6.0 | 13.0 | 0.00 | 0.00 | 0.00 | 79 | 1016.5 |
| 20260510082041 | 56 | 360 | 6.0 | 13.0 | 0.00 | 0.00 | 0.00 | 78 | 1016.5 |
| 20260510081546 | 56 | 346 | 6.0 | 15.0 | 0.00 | 0.00 | 0.00 | 79 | 1016.5 |
| 20260510081052 | 56 | 360 | 7.0 | 15.0 | 0.00 | 0.00 | 0.00 | 79 | 1016.5 |
| 20260510080542 | 56 | 5 | 7.0 | 15.0 | 0.00 | 0.00 | 0.00 | 79 | 1016.5 |
| 20260510080041 | 56 | 26 | 10.0 | 15.0 | 0.00 | 0.00 | 0.00 | 79 | 1016.6 |
| 20260510075610 | 56 | 346 | 9.0 | 15.0 | 0.00 | 0.00 | 0.00 | 79 | 1016.5 |
| 20260510075110 | 56 | 343 | 8.0 | 16.0 | 0.00 | 0.00 | 0.00 | 81 | 1016.6 |
| 20260510074557 | 56 | 317 | 7.0 | 16.0 | 0.00 | 0.00 | 0.00 | 82 | 1016.6 |
| 20260510074103 | 55 | 16 | 7.0 | 15.0 | 0.00 | 0.00 | 0.00 | 82 | 1016.7 |
| 20260510073547 | 56 | 338 | 7.0 | 15.0 | 0.00 | 0.00 | 0.00 | 80 | 1016.7 |
| 20260510073055 | 57 | 9 | 4.0 | 13.0 | 0.00 | 0.00 | 0.00 | 80 | 1016.7 |
| 20260510072604 | 56 | 28 | 7.0 | 13.0 | 0.00 | 0.00 | 0.00 | 79 | 1016.6 |
| 20260510072050 | 57 | 351 | 6.0 | 15.0 | 0.00 | 0.00 | 0.00 | 79 | 1016.6 |
| 20260510071557 | 57 | 28 | 5.0 | 16.0 | 0.00 | 0.00 | 0.00 | 79 | 1016.5 |
| 20260510071039 | 57 | 107 | 8.0 | 16.0 | 0.00 | 0.00 | 0.00 | 78 | 1016.5 |
| 20260510070549 | 57 | 343 | 7.0 | 13.0 | 0.00 | 0.00 | 0.00 | 77 | 1016.5 |
| 20260510070049 | 56 | 331 | 5.0 | 13.0 | 0.00 | 0.00 | 0.00 | 77 | 1016.5 |
| 20260510065555 | 56 | 40 | 6.0 | 13.0 | 0.00 | 0.00 | 0.00 | 79 | 1016.5 |
| 20260510065054 | 56 | 55 | 7.0 | 18.0 | 0.00 | 0.00 | 0.00 | 79 | 1016.4 |
| 20260510064603 | 56 | 338 | 8.0 | 18.0 | 0.00 | 0.00 | 0.00 | 78 | 1016.2 |
| 20260510064049 | 56 | 5 | 6.0 | 13.0 | 0.00 | 0.00 | 0.00 | 78 | 1016.4 |
| 20260510063537 | 56 | 355 | 5.0 | 12.0 | 0.00 | 0.00 | 0.00 | 77 | 1016.5 |
| 20260510063047 | 56 | 9 | 4.0 | 11.0 | 0.00 | 0.00 | 0.00 | 78 | 1016.5 |
| 20260510062616 | 56 | 29 | 7.0 | 13.0 | 0.00 | 0.00 | 0.00 | 77 | 1016.5 |
| 20260510062039 | 56 | 360 | 3.0 | 16.0 | 0.00 | 0.00 | 0.00 | 77 | 1016.4 |
| 20260510061549 | 56 | 360 | 4.0 | 11.0 | 0.00 | 0.00 | 0.00 | 77 | 1016.5 |
| 20260510061037 | 56 | 355 | 6.0 | 11.0 | 0.00 | 0.00 | 0.00 | 76 | 1016.4 |
| 20260510060603 | 55 | 340 | 2.0 | 10.0 | 0.00 | 0.00 | 0.00 | 76 | 1016.4 |
| 20260510060044 | 55 | 13 | 5.0 | 11.0 | 0.00 | 0.00 | 0.00 | 76 | 1016.4 |
| 20260510055552 | 55 | 9 | 5.0 | 11.0 | 0.00 | 0.00 | 0.00 | 77 | 1016.4 |
| 20260510055041 | 55 | 339 | 3.0 | 13.0 | 0.00 | 0.00 | 0.00 | 78 | 1016.3 |
| 20260510054550 | 55 | 5 | 6.0 | 13.0 | 0.00 | 0.00 | 0.00 | 77 | 1016.3 |
| 20260510054052 | 54 | 281 | 4.0 | 12.0 | 0.00 | 0.00 | 0.00 | 76 | 1016.4 |
| 20260510053541 | 54 | 339 | 6.0 | 12.0 | 0.00 | 0.00 | 0.00 | 77 | 1016.4 |
| 20260510053112 | 54 | 46 | 4.0 | 12.0 | 0.00 | 0.00 | 0.00 | 78 | 1016.4 |
| 20260510052539 | 54 | 33 | 5.0 | 11.0 | 0.00 | 0.00 | 0.00 | 78 | 1016.4 |
| 20260510052044 | 53 | 5 | 4.0 | 11.0 | 0.00 | 0.00 | 0.00 | 79 | 1016.5 |
| 20260510051555 | 53 | 51 | 4.0 | 10.0 | 0.00 | 0.00 | 0.00 | 80 | 1016.5 |
| 20260510051045 | 53 | 355 | 4.0 | 11.0 | 0.00 | 0.00 | 0.00 | 80 | 1016.5 |
| 20260510050553 | 53 | 355 | 3.0 | 9.0 | 0.00 | 0.00 | 0.00 | 81 | 1016.5 |
| 20260510050054 | 53 | 43 | 4.0 | 9.0 | 0.00 | 0.00 | 0.00 | 81 | 1016.6 |
| 20260510045536 | 53 | 348 | 4.0 | 9.0 | 0.00 | 0.00 | 0.00 | 81 | 1016.6 |
| 20260510045044 | 52 | 28 | 2.0 | 8.0 | 0.00 | 0.00 | 0.00 | 82 | 1016.6 |
| 20260510044554 | 52 | 15 | 4.0 | 9.0 | 0.00 | 0.00 | 0.00 | 82 | 1016.6 |
| 20260510044042 | 52 | 323 | 3.0 | 9.0 | 0.00 | 0.00 | 0.00 | 83 | 1016.4 |
| 20260510043551 | 52 | 5 | 1.0 | 9.0 | 0.00 | 0.00 | 0.00 | 83 | 1016.4 |
| 20260510043052 | 52 | 54 | 3.0 | 11.0 | 0.00 | 0.00 | 0.00 | 83 | 1016.3 |
| 20260510042601 | 52 | 5 | 3.0 | 11.0 | 0.00 | 0.00 | 0.00 | 84 | 1016.3 |
| 20260510042113 | 52 | 360 | 4.0 | 9.0 | 0.00 | 0.00 | 0.00 | 84 | 1016.3 |
| 20260510041539 | 52 | 340 | 3.0 | 9.0 | 0.00 | 0.00 | 0.00 | 84 | 1016.2 |
| 20260510041042 | 52 | 347 | 3.0 | 9.0 | 0.00 | 0.00 | 0.00 | 84 | 1016.2 |
| 20260510040609 | 52 | 9 | 3.0 | 9.0 | 0.00 | 0.00 | 0.00 | 83 | 1016.3 |
| 20260510040048 | 52 | 40 | 3.0 | 9.0 | 0.00 | 0.00 | 0.00 | 83 | 1016.3 |
| 20260510035536 | 52 | 5 | 3.0 | 11.0 | 0.00 | 0.00 | 0.00 | 83 | 1016.3 |
| 20260510035044 | 52 | 360 | 4.0 | 11.0 | 0.00 | 0.00 | 0.00 | 84 | 1016.3 |
| 20260510034547 | 52 | 5 | 4.0 | 11.0 | 0.00 | 0.00 | 0.00 | 85 | 1016.4 |
| 20260510034052 | 52 | 22 | 3.0 | 11.0 | 0.00 | 0.00 | 0.00 | 85 | 1016.4 |
| 20260510033540 | 52 | 360 | 3.0 | 9.0 | 0.00 | 0.00 | 0.00 | 85 | 1016.5 |
| 20260510033046 | 52 | 348 | 4.0 | 9.0 | 0.00 | 0.00 | 0.00 | 85 | 1016.5 |
| 20260510032548 | 52 | 9 | 3.0 | 9.0 | 0.00 | 0.00 | 0.00 | 85 | 1016.5 |
| 20260510032037 | 52 | 360 | 3.0 | 9.0 | 0.00 | 0.00 | 0.00 | 85 | 1016.5 |
| 20260510031603 | 52 | 355 | 3.0 | 9.0 | 0.00 | 0.00 | 0.00 | 85 | 1016.5 |
| 20260510031050 | 52 | 5 | 3.0 | 9.0 | 0.00 | 0.00 | 0.00 | 85 | 1016.6 |
| 20260510030536 | 52 | 360 | 4.0 | 9.0 | 0.00 | 0.00 | 0.00 | 86 | 1016.6 |
| 20260510030035 | 52 | 360 | 3.0 | 9.0 | 0.00 | 0.00 | 0.00 | 87 | 1016.6 |
| 20260510025544 | 52 | 348 | 2.0 | 9.0 | 0.00 | 0.00 | 0.00 | 88 | 1016.7 |
| 20260510025051 | 52 | 346 | 2.0 | 8.0 | 0.00 | 0.00 | 0.00 | 88 | 1016.7 |
| 20260510024545 | 52 | 339 | 2.0 | 8.0 | 0.00 | 0.00 | 0.00 | 89 | 1016.7 |
| 20260510024042 | 52 | 336 | 3.0 | 8.0 | 0.00 | 0.00 | 0.00 | 89 | 1016.8 |
| 20260510023614 | 52 | 16 | 2.0 | 8.0 | 0.00 | 0.00 | 0.00 | 89 | 1016.7 |
| 20260510023040 | 52 | 355 | 3.0 | 8.0 | 0.00 | 0.00 | 0.00 | 89 | 1016.7 |
| 20260510022549 | 52 | 23 | 3.0 | 10.0 | 0.00 | 0.00 | 0.00 | 89 | 1016.7 |
| 20260510022052 | 52 | 19 | 4.0 | 10.0 | 0.00 | 0.00 | 0.00 | 89 | 1016.7 |
| 20260510021540 | 52 | 31 | 4.0 | 7.0 | 0.00 | 0.00 | 0.00 | 89 | 1016.8 |
| 20260510021046 | 52 | 355 | 3.0 | 10.0 | 0.00 | 0.00 | 0.00 | 89 | 1016.8 |
| 20260510020551 | 52 | 360 | 2.0 | 10.0 | 0.00 | 0.00 | 0.00 | 90 | 1016.8 |
| 20260510020052 | 52 | 15 | 2.0 | 5.0 | 0.00 | 0.00 | 0.00 | 90 | 1016.8 |
| 20260510015553 | 52 | 345 | 3.0 | 6.0 | 0.00 | 0.00 | 0.00 | 90 | 1016.7 |
| 20260510015039 | 53 | 325 | 3.0 | 8.0 | 0.00 | 0.00 | 0.00 | 90 | 1016.7 |
| 20260510014546 | 53 | 5 | 2.0 | 8.0 | 0.00 | 0.00 | 0.00 | 90 | 1016.7 |
| 20260510014054 | 53 | 355 | 3.0 | 8.0 | 0.00 | 0.00 | 0.00 | 90 | 1016.7 |
| 20260510013542 | 52 | 342 | 3.0 | 6.0 | 0.00 | 0.00 | 0.00 | 90 | 1016.9 |
| 20260510013107 | 53 | 355 | 2.0 | 9.0 | 0.00 | 0.00 | 0.00 | 90 | 1016.8 |
| 20260510012553 | 53 | 9 | 2.0 | 9.0 | 0.00 | 0.00 | 0.00 | 89 | 1016.8 |
| 20260510012058 | 53 | 15 | 4.0 | 9.0 | 0.00 | 0.00 | 0.00 | 89 | 1016.7 |
| 20260510011547 | 53 | 355 | 2.0 | 9.0 | 0.00 | 0.00 | 0.00 | 88 | 1016.6 |
| 20260510011108 | 53 | 327 | 3.0 | 6.0 | 0.00 | 0.00 | 0.00 | 88 | 1016.7 |
| 20260510010537 | 53 | 9 | 2.0 | 6.0 | 0.00 | 0.00 | 0.00 | 88 | 1016.8 |
| 20260510010036 | 53 | 347 | 3.0 | 6.0 | 0.00 | 0.00 | 0.00 | 88 | 1016.9 |
| 20260510005545 | 53 | 30 | 3.0 | 6.0 | 0.00 | 0.00 | 0.00 | 88 | 1017.0 |
| 20260510005108 | 53 | 336 | 3.0 | 6.0 | 0.00 | 0.00 | 0.00 | 88 | 1017.0 |
| 20260510004535 | 52 | 343 | 2.0 | 5.0 | 0.00 | 0.00 | 0.00 | 87 | 1017.1 |
| 20260510004043 | 52 | 355 | 2.0 | 5.0 | 0.00 | 0.00 | 0.00 | 87 | 1017.1 |
| 20260510003611 | 53 | 11 | 1.0 | 3.0 | 0.00 | 0.00 | 0.00 | 87 | 1017.1 |
| 20260510003054 | 52 | 40 | 1.0 | 4.0 | 0.00 | 0.00 | 0.00 | 88 | 1017.1 |
| 20260510002544 | 52 | 12 | 2.0 | 4.0 | 0.00 | 0.00 | 0.00 | 87 | 1017.1 |
| 20260510002116 | 52 | 12 | 1.0 | 4.0 | 0.00 | 0.00 | 0.00 | 87 | 1017.2 |
| 20260510001604 | 52 | 12 | 1.0 | 3.0 | 0.00 | 0.00 | 0.00 | 87 | 1017.2 |
| 20260510001107 | 53 | 12 | 1.0 | 4.0 | 0.00 | 0.00 | 0.00 | 85 | 1017.2 |
| 20260510000555 | 53 | 12 | 1.0 | 4.0 | 0.00 | 0.00 | 0.00 | 85 | 1017.2 |
| 20260510000035 | 53 | 9 | 2.0 | 3.0 | 0.00 | 0.00 | 0.00 | 83 | 1017.3 |
| 20260509235545 | 53 | 355 | 2.0 | 3.0 | 0.00 | 0.00 | 0.00 | 82 | 1017.3 |
| 20260509235048 | 53 | 355 | 1.0 | 3.0 | 0.00 | 0.00 | 0.00 | 82 | 1017.3 |
| 20260509234557 | 53 | 10 | 1.0 | 3.0 | 0.00 | 0.00 | 0.00 | 82 | 1017.2 |
| 20260509234045 | 53 | 10 | 1.0 | 4.0 | 0.00 | 0.00 | 0.00 | 81 | 1017.4 |
| 20260509233554 | 53 | 347 | 1.0 | 5.0 | 0.00 | 0.00 | 0.00 | 81 | 1017.3 |
| 20260509233042 | 53 | 13 | 2.0 | 5.0 | 0.00 | 0.00 | 0.00 | 81 | 1017.4 |
| 20260509232547 | 53 | 342 | 2.0 | 4.0 | 0.00 | 0.00 | 0.00 | 81 | 1017.3 |
| 20260509232038 | 53 | 349 | 1.0 | 4.0 | 0.00 | 0.00 | 0.00 | 81 | 1017.2 |
| 20260509231547 | 53 | 346 | 3.0 | 4.0 | 0.00 | 0.00 | 0.00 | 81 | 1017.3 |
| 20260509231036 | 53 | 347 | 1.0 | 6.0 | 0.00 | 0.00 | 0.00 | 81 | 1017.3 |
| 20260509230605 | 53 | 347 | 1.0 | 6.0 | 0.00 | 0.00 | 0.00 | 80 | 1017.3 |
| 20260509230040 | 54 | 5 | 2.0 | 4.0 | 0.00 | 0.00 | 0.00 | 80 | 1017.3 |
| 20260509225548 | 54 | 351 | 2.0 | 8.0 | 0.00 | 0.00 | 0.00 | 80 | 1017.3 |
| 20260509225035 | 54 | 360 | 3.0 | 8.0 | 0.00 | 0.00 | 0.00 | 79 | 1017.3 |
| 20260509224543 | 54 | 342 | 3.0 | 6.0 | 0.00 | 0.00 | 0.00 | 79 | 1017.3 |
| 20260509224047 | 54 | 80 | 1.0 | 4.0 | 0.00 | 0.00 | 0.00 | 79 | 1017.4 |
| 20260509223536 | 54 | 5 | 2.0 | 3.0 | 0.00 | 0.00 | 0.00 | 79 | 1017.4 |
| 20260509223046 | 54 | 344 | 1.0 | 5.0 | 0.00 | 0.00 | 0.00 | 78 | 1017.4 |
| 20260509222536 | 54 | 5 | 2.0 | 5.0 | 0.00 | 0.00 | 0.00 | 78 | 1017.4 |
| 20260509222044 | 55 | 355 | 2.0 | 5.0 | 0.00 | 0.00 | 0.00 | 78 | 1017.4 |
| 20260509221548 | 55 | 347 | 1.0 | 8.0 | 0.00 | 0.00 | 0.00 | 77 | 1017.4 |
| 20260509221036 | 55 | 9 | 2.0 | 8.0 | 0.00 | 0.00 | 0.00 | 77 | 1017.4 |
| 20260509220546 | 55 | 344 | 3.0 | 6.0 | 0.00 | 0.00 | 0.00 | 77 | 1017.4 |
| 20260509220046 | 55 | 360 | 2.0 | 6.0 | 0.00 | 0.00 | 0.00 | 77 | 1017.4 |
| 20260509215552 | 55 | 5 | 3.0 | 6.0 | 0.00 | 0.00 | 0.00 | 78 | 1017.3 |
| 20260509215034 | 55 | 32 | 2.0 | 6.0 | 0.00 | 0.00 | 0.00 | 78 | 1017.3 |
| 20260509214544 | 55 | 22 | 3.0 | 8.0 | 0.00 | 0.00 | 0.00 | 78 | 1017.3 |
| 20260509214052 | 55 | 38 | 3.0 | 8.0 | 0.00 | 0.00 | 0.00 | 79 | 1017.3 |
| 20260509213540 | 55 | 346 | 3.0 | 8.0 | 0.00 | 0.00 | 0.00 | 80 | 1017.2 |
| 20260509213113 | 55 | 79 | 1.0 | 6.0 | 0.00 | 0.00 | 0.00 | 80 | 1017.2 |
| 20260509212537 | 55 | 32 | 2.0 | 5.0 | 0.00 | 0.00 | 0.00 | 81 | 1017.3 |
| 20260509212046 | 55 | 32 | 3.0 | 5.0 | 0.00 | 0.00 | 0.00 | 81 | 1017.4 |
| 20260509211553 | 55 | 32 | 3.0 | 6.0 | 0.00 | 0.00 | 0.00 | 81 | 1017.4 |
| 20260509211041 | 56 | 31 | 2.0 | 5.0 | 0.00 | 0.00 | 0.00 | 82 | 1017.4 |
| 20260509210550 | 55 | 336 | 2.0 | 11.0 | 0.00 | 0.00 | 0.00 | 82 | 1017.4 |
| 20260509210112 | 56 | 350 | 4.0 | 11.0 | 0.00 | 0.00 | 0.00 | 83 | 1017.4 |
| 20260509205538 | 56 | 360 | 2.0 | 8.0 | 0.00 | 0.00 | 0.00 | 83 | 1017.4 |
| 20260509205107 | 56 | 360 | 3.0 | 8.0 | 0.00 | 0.00 | 0.00 | 83 | 1017.4 |
| 20260509204535 | 56 | 355 | 3.0 | 8.0 | 0.00 | 0.00 | 0.00 | 83 | 1017.3 |
| 20260509204038 | 56 | 355 | 4.0 | 8.0 | 0.00 | 0.00 | 0.00 | 83 | 1017.3 |
| 20260509203548 | 56 | 355 | 3.0 | 8.0 | 0.00 | 0.00 | 0.00 | 83 | 1017.2 |
| 20260509203035 | 56 | 319 | 4.0 | 6.0 | 0.00 | 0.00 | 0.00 | 83 | 1017.2 |
| 20260509202544 | 56 | 360 | 2.0 | 8.0 | 0.00 | 0.00 | 0.00 | 83 | 1017.2 |
| 20260509202053 | 56 | 360 | 3.0 | 8.0 | 0.00 | 0.00 | 0.00 | 82 | 1017.2 |